Regional Weather Roundup
Issued by NWS

Home | Current Version | Previous Version | Text Only | Print | Product List | Glossary On
Versions: 1 2 3 4 5 6 7 8 9 10 11 12 13 14 15 16 17 18 19 20 21 22 23 24 25 26 27
000
ASUS43 KDMX 250807
RWRIA

WEATHER ROUNDUP FOR IOWA
NATIONAL WEATHER SERVICE DES MOINES IA
300 AM CDT FRI APR 25 2014

NOTE: "FAIR" INDICATES FEW OR NO CLOUDS BELOW 12,000 FEET WITH NO
SIGNIFICANT WEATHER AND/OR OBSTRUCTIONS TO VISIBILITY.

* - THESE STATIONS ARE NOT NWS STATIONS...THUS NOT UNDER NWS
QUALITY CONTROL.  THEY ALSO DO NOT REPORT WEATHER SUCH
AS PRECIPITATION OR FOG.

IAZ001>003-012>014-020>022-031>034-043>046-250900-
   NORTHWEST IOWA

CITY           SKY/WX    TMP DP  RH WIND       PRES   REMARKS
CARROLL *      CLEAR     45  41  87 SW14      29.79S
CHEROKEE *     CLEAR     37  36  93 CALM      29.78S FOG
DENISON *      CLEAR     41  41 100 CALM      29.79S
LE MARS *        N/A     37  37 100 CALM      29.79S
ORANGE CITY *  CLEAR     45  37  76 W3        29.77F
SHELDON *      CLEAR     39  37  93 SW3       29.76F
SIOUX CITY     CLEAR     42  37  82 CALM      29.80R
SPENCER        CLEAR     37  35  92 SW5       29.77S WCI  33
STORM LAKE *   CLEAR     43  41  93 SW7       29.79S
$$

IAZ055>058-069>071-079>083-090>094-250900-
   SOUTHWEST IOWA

CITY           SKY/WX    TMP DP  RH WIND       PRES   REMARKS
ATLANTIC *     FOG       37  37 100 CALM      29.81S VSB 1/4
AUDUBON *      CLEAR     36  30  80 CALM      29.82S
CLARINDA *     FOG       39  39 100 SW3       29.85S VSB 1/4
COUNCIL BLFS * CLEAR     50  45  81 SW10      29.81S
CRESTON *      CLEAR     43  41  93 SW5       29.83R
HARLAN  *      CLEAR     43  43 100 S6        29.84S FOG
LAMONI         CLEAR     47  43  86 W6        29.83S
RED OAK *      FOG       43  43 100 CALM      29.83S VSB 3/4
SHENANDOAH *   CLEAR     43  41  93 CALM      29.84S
$$

IAZ047>049-059>061-072>074-084-250900-
   CENTRAL IOWA

CITY           SKY/WX    TMP DP  RH WIND       PRES   REMARKS
AMES           CLEAR     39  37  92 W3        29.79S
ANKENY *       CLEAR     39  37  93 CALM      29.80S FOG
CHARITON *     PTCLDY    45  41  87 W8        29.82S
DES MOINES     CLEAR     44  39  82 SW5       29.81S
GRINNELL*      CLEAR     41  39  93 W6        29.80R FOG
KNOXVILLE *    CLEAR     43  41  93 W10       29.80R
MARSHALLTOWN   CLEAR     41  40  96 W7        29.78S FOG
NEWTON *       CLEAR     41  41 100 W7        29.81R FOG
PELLA *        CLEAR     43  43 100 W6        29.82R
PERRY *          N/A     41  39  93 SW5       29.81R
$$

IAZ004>006-015-016-023>025-035-036-250900-
   NORTH CENTRAL IOWA

CITY           SKY/WX    TMP DP  RH WIND       PRES   REMARKS
ALGONA *       CLEAR     41  39  93 SW8       29.77F
CLARION *      CLEAR     37  37 100 SW3       29.78S FOG
ESTHERVILLE    CLEAR     39  38  96 SW9       29.75F WCI  33
FORT DODGE *   CLEAR     39  36  87 CALM      29.79S
MASON CITY     CLEAR     36  36 100 W9        29.77S FOG     WCI  29
FOREST CITY *  CLEAR     36  36 100 CALM      29.76S FOG
IOWA FALLS *     N/A     39  37  93 CALM      29.79R FOG
$$

IAZ007>011-017>019-026>030-037>042-050>054-066-250900-
   NORTHEAST IOWA

CITY           SKY/WX    TMP DP  RH WIND       PRES   REMARKS
CEDAR RAPIDS   MOCLDY    40  39  97 NW8       29.76R FOG     WCI  34
CHARLES CITY * PTCLDY    37  37 100 SW5       29.77R FOG     WCI  34
CLINTON *      CLOUDY    45  41  87 NW10      29.74R
DECORAH *      CLEAR     39  39 100 CALM      29.74R
DUBUQUE        CLOUDY    43  40  89 N14       29.72S
MONTICELLO *   CLEAR     43  41  93 NW9       29.74S
OELWEIN *      CLEAR    N/A N/A N/A W9        29.77R FOG
WATERLOO       CLEAR     39  38  96 W5        29.77R FOG
$$

IAZ064-065-067-068-078-250900-
   EAST CENTRAL IOWA

CITY           SKY/WX    TMP DP  RH WIND       PRES   REMARKS
DAVENPORT      CLOUDY    46  43  89 NW13      29.73R FOG
IOWA CITY      MOCLDY    44  42  93 NW9       29.78R
MT. PLEASANT * CLOUDY    46  43  87 NW8       29.77R
MUSCATINE *    CLEAR     46  43  87 NW9       29.76R
QUAD CITIES    CLOUDY    47  43  86 NW13      29.72R
$$

IAZ062-063-075>077-085>089-095>099-250900-
   SOUTHEAST IOWA

CITY           SKY/WX    TMP DP  RH WIND       PRES   REMARKS
BURLINGTON     CLOUDY    47  44  90 NW12G20   29.74R
FAIRFIELD *    CLEAR     43  41  93 W8        29.79R
FORT MADISON * CLEAR     46  45  93 NW13      29.77R
KEOKUK *       CLEAR     46  45  93 NW10G18   29.77R
OSKALOOSA *      N/A     41  39  93 W6        29.80S FOG
CENTERVILLE *  CLEAR     43  43 100 W8        29.83S
OTTUMWA        PTCLDY    44  42  93 W7        29.79S
WASHINGTON *   CLEAR     45  43  93 NW12      29.77R
$$

ABBREVIATIONS USED IN REMARKS
   TC - TEMPERATURES IN CELSIUS
  WCI - WIND CHILL INDEX
   HX - HEAT INDEX
  VSB - VISIBILITY
$$




USA.gov is the U.S. government's official web portal to all federal, state and local government web resources and services.